Weather reports worldwide

Advertisment
Catania/Sigonella, Italy (16459): temperature & dewpoint: 15.01.2018 04:00:00 - 21.01.2018 04:00:00 (CET)Catania/Sigonella, Italy (16459): wind speed: 15.01.2018 04:00:00 - 21.01.2018 04:00:00 (CET)Catania/Sigonella, Italy (16459): wind direction: 15.01.2018 04:00:00 - 21.01.2018 04:00:00 (CET)Catania/Sigonella, Italy (16459): reduced air pressure: 15.01.2018 04:00:00 - 21.01.2018 04:00:00 (CET)Catania/Sigonella, Italy (16459): visibility: 15.01.2018 04:00:00 - 21.01.2018 04:00:00 (CET)
Date & Time tt [°C] td [°C] ff [km/h] ff [kn] dd ppp [hPa] vv [km]
21.01.2018 04:00:00 - - - - - - -
21.01.2018 03:00:00 2,0 2,0 9 5 W - 10
21.01.2018 02:00:00 4,0 4,0 8 4 W - 10
21.01.2018 01:00:00 4,0 4,0 9 5 WNW 1014,8 15
21.01.2018 00:00:00 4,0 4,0 8 4 W - 10
20.01.2018 23:00:00 5,0 5,0 5 3 WSW - 10
20.01.2018 22:00:00 4,6 4,6 8 4 WSW 1015,6 12
20.01.2018 21:00:00 7,0 5,0 13 7 W - 10
20.01.2018 20:00:00 6,0 6,0 13 7 W - 10
20.01.2018 19:00:00 8,4 7,5 5 3 W 1014,6 15
20.01.2018 18:00:00 10,0 6,0 4 2 N - 10
20.01.2018 17:00:00 12,0 5,0 11 6 E - 10
20.01.2018 16:00:00 12,8 4,2 15 8 E 1013,7 18
20.01.2018 15:00:00 16,0 5,0 9 5 SE - 10
20.01.2018 14:00:00 16,0 5,0 4 2 SE - 10
20.01.2018 13:00:00 15,6 5,5 8 4 ESE 1014,3 18
20.01.2018 12:00:00 14,0 6,0 4 2 W - 10
20.01.2018 11:00:00 12,0 8,0 5 3 W - 10
20.01.2018 10:00:00 10,0 9,1 8 4 WSW 1015,8 16
20.01.2018 09:00:00 6,0 6,0 9 5 WSW - 10
20.01.2018 08:00:00 4,0 4,0 13 7 W - 10
20.01.2018 07:00:00 3,6 3,6 9 5 WSW 1015,7 10
20.01.2018 06:00:00 6,0 6,0 5 3 WNW - 10
20.01.2018 05:00:00 6,0 6,0 5 3 W - 10
20.01.2018 04:00:00 7,2 7,2 11 6 NW 1015,6 10
20.01.2018 03:00:00 8,0 8,0 5 3 W - 10
20.01.2018 02:00:00 8,0 8,0 8 4 WSW - 10
20.01.2018 01:00:00 8,4 8,4 13 7 W 1016,6 10
20.01.2018 00:00:00 9,0 9,0 9 5 WNW - 10
19.01.2018 23:00:00 9,0 9,0 4 2 SW - 10
19.01.2018 22:00:00 9,0 9,0 2 1 WNW 1016,8 10
19.01.2018 21:00:00 10,0 9,0 11 6 W - 10
19.01.2018 20:00:00 10,0 7,0 15 8 W - 10
19.01.2018 19:00:00 10,8 6,7 21 11 WSW 1016,6 15
19.01.2018 18:00:00 11,0 6,0 22 12 WSW - 10
19.01.2018 17:00:00 12,0 6,0 28 15 WSW - 10
19.01.2018 16:00:00 14,6 6,2 29 16 WSW 1016,6 15
19.01.2018 15:00:00 15,0 6,0 31 17 SW - 10
19.01.2018 14:00:00 16,0 7,0 29 16 SW - 10
19.01.2018 13:00:00 16,2 6,6 29 16 WSW 1017,6 12
19.01.2018 12:00:00 16,0 7,0 28 15 WSW - 10
19.01.2018 11:00:00 15,0 8,0 26 14 WSW - 10
19.01.2018 10:00:00 9,2 5,4 9 5 NW 1020,2 15
19.01.2018 09:00:00 6,0 4,0 15 8 WNW - 10
19.01.2018 08:00:00 4,0 3,0 9 5 WNW - 10
19.01.2018 07:00:00 1,6 1,6 11 6 W 1020,7 10
19.01.2018 06:00:00 2,0 2,0 4 2 SE - 10
19.01.2018 05:00:00 4,0 3,0 5 3 ENE - 10
19.01.2018 04:00:00 4,6 3,2 11 6 NNW 1020,8 10
19.01.2018 03:00:00 4,0 4,0 11 6 NW - 10
19.01.2018 02:00:00 4,0 4,0 9 5 NW - 10
19.01.2018 01:00:00 4,2 4,2 9 5 W 1022,1 10
19.01.2018 00:00:00 5,0 5,0 5 3 NW - 10
18.01.2018 23:00:00 6,0 6,0 13 7 W - 10
18.01.2018 22:00:00 6,2 6,2 8 4 W 1022,8 10
18.01.2018 21:00:00 9,0 6,0 11 6 WNW - 10
18.01.2018 20:00:00 8,0 5,0 15 8 W - 10
18.01.2018 19:00:00 8,0 4,0 9 5 SW 1023,2 10
18.01.2018 18:00:00 11,0 3,0 8 4 WNW - 10
18.01.2018 17:00:00 14,0 1,0 4 2 N - 10
18.01.2018 16:00:00 15,4 0,0 22 12 E 1022,7 10
18.01.2018 15:00:00 18,0 -2,0 16 9 ENE - 10
18.01.2018 14:00:00 17,0 -4,0 11 6 NW - 10
18.01.2018 13:00:00 16,6 -4,6 18 10 WNW 1022,8 10
18.01.2018 12:00:00 16,0 -5,0 15 8 W - 10
18.01.2018 11:00:00 15,0 -4,0 16 9 WSW - 10
18.01.2018 10:00:00 13,8 -4,4 15 8 WSW 1022,5 10
18.01.2018 09:00:00 12,0 -6,0 15 8 WNW - 10
18.01.2018 08:00:00 11,0 -5,0 24 13 WNW - 10
18.01.2018 07:00:00 10,0 -2,3 13 7 NW 1020,3 12
18.01.2018 06:00:00 10,0 2,0 28 15 W - 10
18.01.2018 05:00:00 10,0 1,0 16 9 W - 10
18.01.2018 04:00:00 10,4 1,5 34 18 W 1017,5 10
18.01.2018 03:00:00 10,0 1,0 26 14 W - 10
18.01.2018 02:00:00 11,0 1,0 31 17 W - 10
18.01.2018 01:00:00 11,0 2,1 31 17 WNW 1015,6 10
18.01.2018 00:00:00 12,0 2,0 42 23 W - 10
17.01.2018 23:00:00 12,0 3,0 46 25 WNW - 10
17.01.2018 22:00:00 12,0 5,0 31 17 W 1013,4 10
17.01.2018 21:00:00 13,0 7,0 35 19 E - 10
17.01.2018 20:00:00 14,0 8,0 39 21 W - 10
17.01.2018 19:00:00 12,6 8,7 24 13 WSW 1011,5 10
17.01.2018 18:00:00 15,0 8,0 29 16 W - 10
17.01.2018 17:00:00 16,0 9,0 34 18 W - 10
17.01.2018 16:00:00 17,4 6,6 41 22 W 1010,3 10
17.01.2018 15:00:00 18,0 8,0 46 25 W - 10
17.01.2018 14:00:00 18,0 8,0 41 22 W - 10
17.01.2018 13:00:00 16,2 7,9 37 20 W 1012,3 10
17.01.2018 12:00:00 15,0 9,0 29 16 W - 10
17.01.2018 11:00:00 15,0 11,0 35 19 WSW - 8
17.01.2018 10:00:00 14,4 9,8 39 21 W 1014,8 8
17.01.2018 09:00:00 13,0 11,0 31 17 W - 10
17.01.2018 08:00:00 12,0 10,0 35 19 WSW - 10
17.01.2018 07:00:00 11,2 10,3 29 16 W 1015,8 16
17.01.2018 06:00:00 11,0 11,0 18 10 W - 10
17.01.2018 05:00:00 10,0 10,0 16 9 WSW - 10
17.01.2018 04:00:00 10,6 8,9 34 18 WSW 1017,9 15
17.01.2018 03:00:00 10,0 9,0 26 14 WSW - 10
17.01.2018 02:00:00 11,0 9,0 28 15 W - 10
17.01.2018 01:00:00 10,8 8,9 26 14 W 1018,9 15
17.01.2018 00:00:00 11,0 8,0 28 15 W - 10
16.01.2018 23:00:00 10,0 8,0 22 12 WSW - 10
16.01.2018 22:00:00 10,2 8,0 24 13 W 1020,6 15
16.01.2018 21:00:00 11,0 8,0 22 12 WSW - 10
16.01.2018 20:00:00 11,0 10,0 24 13 WSW - 10
16.01.2018 19:00:00 11,2 9,6 22 12 WSW 1020,8 10
16.01.2018 18:00:00 12,0 8,0 18 10 WSW - 10
16.01.2018 17:00:00 15,0 4,0 18 10 W - 10
16.01.2018 16:00:00 15,0 0,8 39 21 W 1020,7 10
16.01.2018 15:00:00 15,0 1,0 46 25 W - 10
16.01.2018 14:00:00 17,0 3,0 42 23 W - 10
16.01.2018 13:00:00 16,6 3,3 41 22 W 1022,2 10
16.01.2018 12:00:00 16,0 6,0 35 19 W - 10
16.01.2018 11:00:00 14,0 8,0 29 16 W - 10
16.01.2018 10:00:00 11,4 7,9 21 11 W 1024,8 12
16.01.2018 09:00:00 8,0 7,0 18 10 W - 10
16.01.2018 08:00:00 5,0 5,0 11 6 WNW - 10
16.01.2018 07:00:00 5,0 5,0 15 8 W 1024,7 15
16.01.2018 06:00:00 7,0 7,0 15 8 WNW - 10
16.01.2018 05:00:00 6,0 6,0 16 9 W - 10
16.01.2018 04:00:00 6,6 6,6 8 4 NW 1025,3 15
16.01.2018 03:00:00 6,0 6,0 11 6 NW - 10
16.01.2018 02:00:00 7,0 7,0 9 5 NNW - 10
16.01.2018 01:00:00 8,0 8,0 13 7 NW 1025,4 15
16.01.2018 00:00:00 7,0 7,0 11 6 WNW - 10
15.01.2018 23:00:00 8,0 8,0 13 7 WSW - 10
15.01.2018 22:00:00 9,2 9,2 16 9 W 1025,4 15
15.01.2018 21:00:00 9,0 9,0 16 9 W - 10
15.01.2018 20:00:00 8,0 8,0 9 5 WSW - 10
15.01.2018 19:00:00 9,8 9,8 2 1 SW 1023,8 15
15.01.2018 18:00:00 10,0 10,0 9 5 WSW - 10
15.01.2018 17:00:00 12,0 10,0 15 8 WSW - 10
15.01.2018 16:00:00 14,2 8,4 11 6 WSW 1023,4 16
15.01.2018 15:00:00 15,0 6,0 15 8 W - 10
15.01.2018 14:00:00 15,0 8,0 15 8 W - 10
15.01.2018 13:00:00 14,4 8,6 11 6 WNW 1024,5 18
15.01.2018 12:00:00 12,0 9,0 11 6 W - 10
15.01.2018 11:00:00 11,0 10,0 11 6 WSW - 10
15.01.2018 10:00:00 9,8 9,8 11 6 WNW 1024,7 13
15.01.2018 09:00:00 7,0 7,0 8 4 WNW - 10
15.01.2018 08:00:00 5,0 5,0 5 3 WSW - 10
15.01.2018 07:00:00 4,4 4,4 8 4 W 1024,2 10
15.01.2018 06:00:00 4,0 4,0 8 4 W - 10
15.01.2018 05:00:00 4,0 4,0 8 4 W - 10
15.01.2018 04:00:00 3,4 3,4 8 4 NNE 1024,5 10

tt = temperature
td = dewpoint
ff = wind speed
dd = wind direction
ppp = reduced air pressure
vv = visibility

Next stations